TimeEST,TemperatureF,Dew PointF,Humidity,Sea Level PressureIn,VisibilityMPH,Wind Direction,Wind SpeedMPH,Gust SpeedMPH,PrecipitationIn,Events,Conditions,WindDirDegrees,DateUTC
12:15 AM,62.6,60.8,94,30.15,10.0,Calm,Calm,-,N/A,,Clear,0,2012-11-14 05:15:00
12:35 AM,62.6,60.8,94,30.14,10.0,Calm,Calm,-,N/A,,Clear,0,2012-11-14 05:35:00
12:55 AM,62.6,60.8,94,30.14,10.0,Calm,Calm,-,N/A,,Clear,0,2012-11-14 05:55:00
1:15 AM,60.8,60.8,100,30.13,10.0,Calm,Calm,-,N/A,,Clear,0,2012-11-14 06:15:00
1:35 AM,60.8,59.0,94,30.13,10.0,North,3.5,-,N/A,,Clear,360,2012-11-14 06:35:00
1:55 AM,60.8,59.0,94,30.12,10.0,North,3.5,-,N/A,,Clear,360,2012-11-14 06:55:00
2:15 AM,60.8,59.0,94,30.12,10.0,Calm,Calm,-,N/A,,Clear,0,2012-11-14 07:15:00
2:35 AM,60.8,60.8,100,30.11,10.0,Calm,Calm,-,N/A,,Clear,0,2012-11-14 07:35:00
2:55 AM,60.8,59.0,94,30.11,7.0,Calm,Calm,-,N/A,,Clear,0,2012-11-14 07:55:00
3:15 AM,60.8,59.0,94,30.12,7.0,NNW,3.5,-,N/A,,Clear,330,2012-11-14 08:15:00
3:35 AM,60.8,59.0,94,30.12,7.0,Calm,Calm,-,N/A,,Clear,0,2012-11-14 08:35:00
3:55 AM,60.8,59.0,94,30.12,7.0,NNE,3.5,-,N/A,,Clear,20,2012-11-14 08:55:00
4:15 AM,60.8,59.0,94,30.12,7.0,Calm,Calm,-,N/A,,Clear,0,2012-11-14 09:15:00
4:35 AM,60.8,59.0,94,30.13,7.0,North,3.5,-,N/A,,Clear,350,2012-11-14 09:35:00
4:55 AM,60.8,59.0,94,30.13,7.0,North,4.6,-,N/A,,Clear,10,2012-11-14 09:55:00
5:15 AM,59.0,59.0,100,30.13,5.0,Calm,Calm,-,N/A,,Clear,0,2012-11-14 10:15:00
5:35 AM,59.0,59.0,100,30.14,7.0,NNE,5.8,-,N/A,,Clear,20,2012-11-14 10:35:00
5:50 AM,62.6,60.8,94,30.14,3.0,NNE,5.8,-,N/A,,Mostly Cloudy,20,2012-11-14 10:50:00
6:15 AM,62.6,62.6,100,30.15,0.2,NNE,5.8,-,N/A,Fog,Fog,20,2012-11-14 11:15:00
6:50 AM,64.4,64.4,100,30.16,0.5,North,5.8,-,N/A,Fog,Fog,10,2012-11-14 11:50:00
7:50 AM,64.4,64.4,100,30.18,2.0,NNE,6.9,-,N/A,,Overcast,30,2012-11-14 12:50:00
8:50 AM,66.2,64.4,94,30.18,4.0,NE,10.4,-,N/A,,Overcast,40,2012-11-14 13:50:00
9:50 AM,68.0,66.2,94,30.19,6.0,NNE,8.1,-,N/A,,Overcast,30,2012-11-14 14:50:00
10:50 AM,69.8,64.4,83,30.20,7.0,NNE,8.1,-,N/A,,Overcast,30,2012-11-14 15:50:00
11:15 AM,69.8,64.4,83,30.20,7.0,North,11.5,-,N/A,,Overcast,360,2012-11-14 16:15:00
11:50 AM,71.6,64.4,78,30.19,7.0,NNE,6.9,-,N/A,,Overcast,30,2012-11-14 16:50:00
1:50 PM,73.4,62.6,69,30.13,-9999.0,North,6.9,-,N/A,,Mostly Cloudy,360,2012-11-14 18:50:00
2:50 PM,77.0,62.6,61,30.12,15.0,NE,4.6,-,N/A,,Scattered Clouds,40,2012-11-14 19:50:00
3:50 PM,77.0,62.6,61,30.11,15.0,NE,4.6,-,N/A,,Mostly Cloudy,50,2012-11-14 20:50:00
4:50 PM,73.4,62.6,69,30.11,15.0,North,6.9,-,N/A,,Mostly Cloudy,10,2012-11-14 21:50:00
5:50 PM,73.4,64.4,73,30.12,15.0,ENE,8.1,-,N/A,,Mostly Cloudy,70,2012-11-14 22:50:00
6:50 PM,69.8,62.6,78,30.13,10.0,NNE,8.1,-,N/A,,Mostly Cloudy,20,2012-11-14 23:50:00
7:50 PM,68.0,62.6,83,30.15,10.0,NNE,6.9,-,N/A,,Clear,30,2012-11-15 00:50:00
8:50 PM,66.2,64.4,94,30.16,10.0,NE,5.8,-,N/A,,Partly Cloudy,40,2012-11-15 01:50:00
9:50 PM,66.2,64.4,94,30.17,10.0,NNE,4.6,-,N/A,,Mostly Cloudy,30,2012-11-15 02:50:00
9:55 PM,64.4,62.6,94,30.17,10.0,NNE,4.6,-,N/A,,Mostly Cloudy,30,2012-11-15 02:55:00
10:15 PM,64.4,62.6,94,30.16,10.0,NNE,6.9,-,N/A,,Overcast,30,2012-11-15 03:15:00
10:55 PM,64.4,62.6,94,30.16,10.0,NE,9.2,-,N/A,,Overcast,40,2012-11-15 03:55:00
11:35 PM,64.4,62.6,94,30.15,10.0,NNE,6.9,-,N/A,,Overcast,30,2012-11-15 04:35:00